Zurück zum Katalog

STARLINK-30250

AktivKommunikationVLEO
NORAD 57527·PAYLOAD·🇺🇸 United States

Gestartet Aug 8, 2023 von Vandenberg Space Force Base

Loading…

Nächste Überflüge (nächste 24 Stunden)

TLE

AktuellSource: CelesTrak SupGP

Epoche: Sep 15, 2026, 02:25 UTC

1 57527C 23115G   26258.10118056  .00026533  00000+0  95071-3 0  2584
2 57527  42.9994  12.1664 0002443 297.3896 150.3123 15.27916694    18

Verfolge STARLINK-30250 in Echtzeit mit AllMySat

Download on the App Store